Theta_e
347 348 351 354 354 359 360 362 362 360 359 357 357 358 359 358 359 359 360 360 359 359 360 359 358 358 357 355 353 350 348 347 349 348 350 350 351 350 351 351 350 352 351
347 348 349 350 351 353 354 357 357 359 358 358 359 356 356 355 359 361 360 360 360 360 360 360 358 358 357 354 352 352 352 353 352 351 352 351 351 349 349 350 351 351 351
344 346 347 347 348 348 349 351 356 354 357 359 358 357 355 356 355 358 362 361 360 359 360 361 358 358 356 355 355 356 355 352 351 351 351 350 349 351 350 351 351 349 350
346 344 345 346 347 347 346 349 351 354 355 356 356 357 356 354 351 348 358 360 361 361 360 359 358 358 357 355 357 358 355 354 353 352 352 351 351 350 350 350 351 349 350
345 345 342 343 344 345 347 347 347 350 354 354 355 357 356 356 343 337 354 360 360 360 359 360 359 359 358 357 358 359 357 353 353 353 353 353 352 349 350 349 349 349 349
342 343 343 343 344 344 345 345 344 345 349 354 354 357 356 355 355 352 356 358 360 360 359 358 359 358 358 356 357 357 357 355 354 353 354 352 350 350 349 349 349 349 348
340 342 342 342 343 344 344 344 343 345 346 351 352 353 354 355 355 355 356 357 357 358 359 358 359 359 357 356 356 356 354 354 354 351 353 353 353 350 349 349 349 348 347
338 339 340 339 340 342 343 344 343 341 345 346 349 350 352 354 353 354 355 355 356 355 356 357 358 358 358 358 359 354 353 353 352 353 353 350 350 348 349 348 347 348 346
337 336 337 338 339 339 342 340 342 341 341 344 344 345 345 346 348 350 353 353 354 355 355 355 355 358 358 359 356 356 353 352 352 351 352 350 349 348 349 348 348 347 349
336 333 333 336 337 338 339 338 335 341 341 343 343 343 343 342 339 339 340 340 340 346 354 354 354 356 356 353 353 354 354 354 353 350 350 349 348 347 347 346 346 347 346
331 332 332 333 336 336 336 340 341 342 342 341 342 343 344 345 345 345 342 342 344 342 343 347 352 354 354 353 352 351 351 351 350 349 348 349 348 344 340 346 344 344 343
326 324 329 332 336 337 337 337 339 339 338 340 340 338 337 339 338 340 342 342 342 346 348 349 350 352 351 352 351 350 349 348 347 347 347 345 345 344 341 338 340 339 339
328 327 328 331 333 335 332 334 335 338 338 335 335 336 336 336 336 336 338 339 340 341 344 346 346 346 343 346 347 347 346 346 345 343 341 339 341 340 342 341 340 341 342
328 328 328 330 332 331 332 333 333 331 336 336 334 334 336 334 334 334 336 337 338 339 340 343 342 343 341 341 342 343 343 342 341 340 341 339 339 339 340 339 338 335 335
324 325 327 329 332 332 327 329 330 327 328 331 333 332 330 328 325 329 332 335 336 338 338 337 337 336 336 336 337 337 338 338 338 338 339 339 336 338 337 336 334 333 332
323 324 327 329 329 330 332 326 327 326 327 327 327 328 323 322 323 326 326 332 335 335 335 334 333 334 335 335 336 337 337 337 337 338 337 337 338 337 336 335 333 334 336
326 326 328 329 328 328 329 332 330 326 326 326 327 326 323 322 322 324 326 328 330 330 335 337 337 336 335 335 335 334 334 334 335 335 335 335 335 335 336 336 336 337 337
326 326 328 323 326 328 327 328 329 330 330 327 327 327 326 322 325 326 326 328 329 329 333 334 332 332 331 332 331 331 332 332 333 333 333 335 335 334 334 335 335 335 334
327 327 327 327 327 327 325 327 326 330 330 329 328 326 327 324 322 324 326 326 329 330 329 330 329 328 329 328 328 328 329 329 331 331 330 333 332 333 333 333 332 331 330
328 327 323 324 328 327 326 328 327 327 330 332 328 327 326 326 326 329 330 330 329 329 329 329 329 329 328 329 329 329 329 329 329 330 330 330 330 330 329 328 327 327 327
329 327 323 324 323 326 327 326 326 327 329 331 331 329 327 329 329 330 328 327 327 327 327 327 328 328 328 328 329 329 329 328 329 328 328 326 328 327 326 327 327 326 326
329 326 326 326 324 324 324 324 325 327 328 330 330 328 328 327 329 328 327 327 327 326 327 327 327 327 328 328 327 327 326 327 326 326 325 327 327 326 326 325 324 324 325
326 325 323 323 325 324 323 321 323 324 325 327 330 328 325 326 324 328 328 327 326 326 326 326 325 326 326 325 324 325 325 324 324 324 324 323 324 323 323 323 323 324 325
323 323 323 323 324 323 323 323 322 321 321 321 322 324 325 325 325 327 327 326 325 324 325 325 323 325 325 325 325 324 324 324 323 319 321 322 322 322 321 322 322 323 323
323 323 323 323 324 324 322 322 324 323 323 321 321 321 322 322 323 323 327 327 325 325 325 325 324 324 323 325 325 324 322 322 318 316 315 315 316 318 321 321 322 322 322
323 322 322 324 324 323 323 323 323 322 322 322 322 323 322 321 321 321 320 326 326 325 325 324 324 324 323 322 322 323 322 321 320 318 315 311 312 314 318 319 322 323 322
Wind_Speed
13 16 16 17 18 20 23 27 33 33 35 40 44 41 38 39 38 39 35 33 35 31 27 28 27 24 21 22 23 22 27 22 16 22 24 23 14 19 17 15 15 16 15
16 18 18 18 20 21 23 23 25 30 36 39 36 42 37 36 37 37 38 35 34 32 33 29 26 23 26 26 22 23 23 22 21 18 20 22 15 21 19 20 19 13 13
18 19 20 17 17 20 21 21 23 26 29 33 35 37 40 37 39 35 36 37 35 33 28 29 28 26 26 23 22 24 22 24 25 20 21 21 21 21 16 14 13 13 14
21 19 18 18 18 20 23 21 21 24 28 29 32 34 37 39 33 43 36 36 33 31 30 29 29 30 29 26 25 24 25 19 20 20 19 19 18 15 12 11 14 16 16
22 23 22 21 23 22 19 19 25 24 26 26 27 33 35 40 40 55 51 34 32 29 30 29 31 32 29 29 26 24 23 22 19 16 14 17 18 14 11 15 17 18 20
20 21 23 23 22 22 20 16 21 24 25 26 25 29 31 33 38 51 42 28 29 28 28 29 30 31 31 31 31 28 26 26 22 17 16 16 19 11 13 15 17 17 5
19 19 19 20 20 20 19 15 19 19 19 19 21 23 25 23 28 23 22 26 28 27 27 29 29 28 31 30 34 32 33 25 28 24 20 19 12 9 15 16 19 18 14
15 15 15 13 14 16 17 16 17 18 16 16 15 14 16 16 16 17 23 23 28 28 28 29 28 28 30 31 27 30 36 32 28 27 25 23 22 16 11 17 18 17 18
14 12 15 15 11 11 9 10 15 16 18 13 13 13 14 13 11 13 17 18 18 23 27 28 30 27 29 30 29 28 29 30 26 31 28 25 24 16 11 12 17 17 12
11 14 15 16 14 12 8 10 14 14 15 16 17 14 16 13 12 13 12 11 12 17 22 22 27 29 30 31 32 32 26 26 26 24 27 26 24 18 17 20 18 20 20
10 13 15 16 15 10 12 12 12 12 10 12 11 9 10 7 8 13 12 12 13 16 18 18 21 28 32 27 30 34 30 27 25 25 17 19 23 17 20 26 21 27 27
10 14 19 18 16 16 15 14 10 7 7 8 10 4 3 4 1 4 8 13 12 7 10 13 12 12 15 20 20 26 26 26 22 18 12 11 14 19 22 23 24 27 29
11 15 21 22 16 14 14 13 7 4 4 6 6 3 3 4 3 3 3 9 14 8 7 7 6 7 8 9 15 18 20 17 11 9 9 12 20 19 18 20 25 25 18
12 14 20 23 15 9 6 8 9 9 3 2 2 4 4 4 4 3 5 4 8 9 5 6 9 9 9 10 11 10 12 12 11 8 10 16 19 18 19 13 9 3 2
7 16 25 24 16 7 1 6 6 8 9 6 3 4 4 4 3 3 3 4 9 10 12 11 10 9 7 6 7 9 10 10 10 12 14 14 12 11 10 10 8 6 9
8 17 25 23 14 13 9 5 4 5 7 10 10 6 9 6 3 5 6 6 9 11 9 9 8 8 7 6 5 4 6 9 9 8 9 9 6 8 11 12 14 16 15
12 16 24 20 16 17 9 10 8 5 5 6 5 6 6 6 4 5 6 7 8 6 5 12 11 9 8 7 5 6 6 6 5 7 6 5 7 8 11 12 12 10 10
18 26 24 17 18 15 12 14 10 14 11 8 7 6 5 5 5 4 4 2 3 1 8 12 9 7 5 5 6 5 6 5 3 4 3 1 0 1 2 2 1 1 3
18 15 12 14 6 7 11 8 10 17 15 15 10 9 7 5 2 1 3 5 8 13 9 8 8 7 6 5 4 3 5 2 3 1 3 2 1 1 1 1 2 3 3
19 14 9 10 12 8 13 10 5 12 19 16 13 11 11 7 4 6 7 9 5 12 11 9 8 8 8 7 6 6 5 5 4 5 5 4 3 2 2 3 1 2 3
18 16 12 10 14 11 20 7 11 9 9 15 16 15 13 12 8 9 6 5 3 13 12 10 9 8 7 6 5 9 12 7 7 6 9 6 6 7 4 6 5 3 4
15 14 13 13 2 3 8 8 4 11 14 13 15 13 11 12 12 13 10 8 9 3 6 7 14 12 16 12 9 8 10 12 9 5 2 5 9 7 5 4 1 2 2
15 21 12 10 10 3 4 5 6 4 2 7 11 8 7 9 11 15 9 11 12 10 4 3 6 6 14 12 8 4 1 6 7 2 3 6 3 1 5 3 3 3 5
14 19 12 12 11 7 7 13 5 2 2 8 4 9 8 7 10 11 19 13 10 10 9 11 9 3 11 7 8 7 7 11 8 4 2 5 7 7 4 4 4 4 2
18 15 5 7 7 8 5 6 4 5 12 12 8 6 4 1 6 8 10 14 10 12 12 11 11 8 2 5 5 4 5 7 5 2 2 5 10 14 9 13 9 8 7
20 21 23 27 21 11 10 8 9 5 5 5 2 4 8 7 6 4 2 8 8 7 6 11 10 9 10 11 12 9 10 9 8 6 5 5 8 12 12 9 13 10 9
Wind_Direction
266 271 275 269 263 267 254 248 237 236 235 237 240 238 228 213 213 214 219 221 222 226 226 225 228 233 225 226 248 252 241 246 246 263 265 275 251 228 227 224 240 251 265
267 263 263 265 268 262 262 259 251 243 238 239 240 241 236 231 224 213 214 220 221 217 218 219 225 227 222 234 243 244 239 234 228 247 260 262 267 228 235 240 240 243 255
276 268 263 263 277 282 286 284 264 255 247 242 244 242 238 230 240 221 217 217 223 224 221 217 217 221 225 232 234 232 233 237 230 234 255 267 269 248 236 236 255 254 245
304 304 291 282 280 277 280 287 289 269 253 246 241 240 237 230 231 258 230 220 222 221 221 221 216 214 224 226 228 233 235 239 242 233 239 257 263 250 235 251 260 253 247
300 296 291 281 281 279 271 278 280 282 270 252 248 242 236 233 238 259 231 211 215 218 223 222 222 219 217 222 224 229 228 230 229 233 231 243 255 233 227 248 252 261 251
295 294 290 281 281 276 274 272 282 282 284 258 247 246 247 236 233 228 208 209 212 212 218 222 222 222 221 223 229 230 231 220 219 221 226 232 247 260 232 234 243 251 251
293 300 298 286 281 281 274 271 272 283 287 270 252 252 246 250 252 248 236 223 222 219 219 221 222 220 226 226 225 229 230 228 226 237 231 242 258 262 246 241 241 253 248
295 298 303 307 299 295 279 265 273 274 280 272 259 251 245 219 225 233 232 233 230 228 230 227 224 224 224 219 221 226 223 230 226 226 231 242 250 244 253 248 249 254 260
305 310 316 312 303 309 305 305 284 276 271 258 248 235 224 211 200 216 226 227 231 223 229 233 230 227 227 221 221 214 216 222 230 233 233 244 248 252 254 247 246 234 238
305 317 319 318 308 318 321 304 299 285 280 270 245 233 221 219 223 218 210 215 233 238 232 241 235 232 234 235 227 213 210 214 212 222 228 233 235 233 259 258 246 250 240
309 327 319 305 313 327 337 332 307 300 301 288 264 234 211 183 205 210 213 216 235 241 239 245 246 235 240 236 225 221 220 226 226 221 223 224 233 234 249 259 261 253 264
319 328 324 305 313 325 338 334 342 354 17 34 68 46 58 39 250 219 223 229 229 230 254 250 244 229 237 229 219 224 227 230 228 222 224 233 258 259 244 260 266 265 263
344 334 315 302 304 311 335 332 2 0 30 39 61 27 39 115 64 7 268 230 219 226 236 222 196 201 199 205 214 217 217 217 211 207 220 231 223 234 250 250 249 253 268
1 329 300 293 289 295 337 37 50 35 47 108 58 48 348 43 69 44 48 108 172 176 164 161 184 180 188 190 186 186 204 212 210 206 230 238 250 247 242 241 206 214 284
330 312 303 290 279 253 68 77 68 54 65 57 95 98 91 73 25 102 97 126 161 164 149 133 136 143 154 169 188 193 196 201 212 219 226 224 219 210 212 213 207 227 241
310 303 303 303 301 282 186 137 113 95 88 73 72 83 74 78 93 110 117 141 154 149 149 149 156 161 157 161 173 166 169 186 201 220 235 243 214 238 245 250 253 255 235
279 281 278 291 294 292 239 179 174 183 153 128 106 93 83 71 86 119 133 147 163 199 188 151 144 142 154 160 206 209 229 200 199 189 219 234 236 243 254 252 263 261 262
263 264 259 274 279 287 309 217 199 188 181 180 174 152 111 90 111 108 119 130 224 325 81 114 104 115 115 93 70 76 84 91 78 113 112 80 344 198 316 331 9 12 347
270 261 245 264 236 307 294 295 264 200 178 185 186 189 170 144 141 224 277 265 292 109 97 87 116 118 114 124 137 116 103 133 103 131 192 230 210 275 251 20 357 314 309
269 271 246 260 288 261 271 272 324 26 175 176 171 190 188 183 202 260 284 311 132 120 110 113 109 118 132 133 132 126 131 128 141 155 164 147 147 108 72 77 45 355 329
295 248 224 243 260 285 261 229 160 136 101 129 158 173 172 190 215 241 269 229 123 128 137 140 144 139 138 142 159 179 165 156 183 171 154 154 152 137 144 189 170 111 63
289 280 219 253 249 297 315 347 296 179 190 163 168 179 184 205 203 226 219 173 157 164 152 180 175 186 185 173 173 198 195 175 168 199 219 213 185 179 222 214 205 316 182
302 307 283 224 213 200 281 242 280 46 188 188 170 167 205 237 239 224 178 150 151 161 155 196 291 213 167 163 176 229 245 145 143 174 340 351 20 41 15 5 325 35 237
282 281 268 281 304 239 88 349 147 183 316 330 239 189 228 249 242 195 182 172 177 200 200 206 221 149 144 151 193 194 249 160 142 99 313 330 301 241 215 252 278 298 16
337 345 259 297 203 260 283 237 235 264 188 209 232 179 262 43 312 328 185 174 187 199 221 192 201 234 224 177 231 225 209 177 154 210 255 275 285 288 274 235 223 247 246
12 13 23 20 356 329 328 313 268 255 289 302 304 273 184 206 229 212 232 195 205 222 188 193 202 211 234 250 243 215 210 213 229 254 274 263 274 275 273 318 200 207 238